Theta_e
318 317 317 316 315 317 318 321 333 340 338 339 345 345 344 340 340 340 341 335 334 333 332 332 331 330 329 328 327 326 325 325 324 321 320 320 318 319 316 315 312 311 309 310
318 317 319 318 319 320 321 333 342 343 341 342 343 345 341 341 341 341 339 333 333 333 332 332 332 331 330 329 328 325 322 320 319 318 318 318 318 317 314 311 310 307 307 308
319 320 322 322 321 321 322 326 339 345 342 339 339 341 341 336 340 338 339 335 336 337 335 333 328 331 328 324 320 320 319 319 318 316 315 314 316 312 310 309 309 308 307 306
319 321 323 323 323 324 326 327 338 339 340 346 340 342 340 337 337 336 341 340 339 338 331 323 323 324 320 320 320 320 319 317 315 314 314 313 311 310 308 308 307 308 307 306
322 323 323 324 325 324 326 325 325 334 326 337 341 347 348 339 339 336 340 340 340 337 324 324 321 320 320 320 319 319 318 316 314 312 312 311 311 310 308 307 307 306 306 305
321 322 322 326 325 324 324 324 323 324 323 346 342 345 349 344 342 337 337 341 336 333 323 321 320 320 320 320 318 316 315 316 313 312 310 308 308 309 308 307 306 304 304 304
322 324 324 325 324 323 322 321 324 326 341 347 341 344 346 344 341 337 341 340 333 321 320 319 319 319 319 318 317 314 315 313 311 309 308 308 308 307 306 305 305 304 303 302
322 325 324 324 323 324 328 323 325 330 334 347 342 351 349 345 342 338 338 327 321 319 317 317 319 318 317 316 313 314 314 312 310 308 307 307 307 306 304 303 303 302 301 301
331 332 324 324 325 323 325 328 325 326 334 343 342 342 344 343 341 338 323 321 320 317 316 316 318 318 315 312 312 313 314 312 309 307 307 306 305 303 302 301 301 301 301 300
331 331 327 326 324 323 325 326 330 324 330 351 347 346 347 344 336 322 321 320 319 316 315 315 316 317 313 311 313 313 312 310 308 307 307 306 304 303 301 301 301 301 301 301
328 331 331 327 328 326 324 326 327 324 329 344 347 344 335 334 321 322 320 319 317 315 314 315 317 315 310 311 312 312 310 309 305 305 305 304 304 304 302 302 303 302 302 301
330 327 330 330 328 325 326 328 325 326 328 334 338 340 327 322 321 321 320 318 316 314 315 315 316 314 309 311 312 311 307 305 305 305 305 304 303 303 302 303 304 302 300 299
332 329 328 332 330 327 325 327 326 323 326 339 342 336 323 320 318 320 319 318 316 314 314 315 315 312 309 311 309 308 306 306 305 305 305 305 305 304 304 304 303 302 301 300
329 326 328 332 334 328 329 328 326 325 330 335 334 329 323 321 320 319 318 316 315 314 315 315 314 311 310 311 308 308 305 305 305 305 305 305 304 305 304 304 304 304 303 303
326 328 327 327 327 326 327 326 328 329 332 332 330 326 321 321 320 318 316 316 317 316 315 315 312 310 311 310 308 307 304 305 306 306 305 305 305 306 306 304 304 303 303 304
327 328 328 324 326 327 327 329 329 328 327 327 325 322 320 319 318 317 315 317 316 315 318 316 313 311 311 307 307 307 305 305 307 307 307 306 306 306 306 305 304 303 304 304
328 324 326 325 327 329 329 327 327 326 325 323 322 320 320 320 318 315 315 316 316 317 317 316 312 311 309 306 306 306 305 305 306 307 306 306 307 307 305 305 304 304 304 304
329 328 328 327 325 333 328 324 325 325 322 319 321 322 319 317 314 313 313 314 316 317 317 313 311 312 308 306 306 305 306 306 305 305 306 307 306 305 305 305 305 304 305 305
327 329 332 328 335 331 326 327 327 327 327 319 323 320 317 315 314 314 313 313 314 315 314 312 313 311 308 307 306 306 306 305 305 305 306 307 307 306 306 305 305 304 304 304
328 328 332 331 338 339 330 327 325 325 329 319 322 319 317 316 318 314 313 314 315 316 314 314 313 310 308 307 306 306 306 305 305 305 305 307 307 307 306 306 306 305 304 305
328 327 331 332 337 331 325 326 327 331 325 319 319 319 317 318 314 311 312 313 316 316 315 313 313 312 309 307 307 306 305 305 304 305 305 307 307 307 306 305 306 305 305 306
327 325 334 334 333 334 332 330 326 323 318 319 318 315 314 313 312 312 312 312 315 316 314 312 312 311 309 309 308 307 306 305 305 305 305 307 307 307 307 305 305 305 305 306
334 333 336 338 334 328 325 327 317 317 317 318 316 314 314 313 313 312 312 313 315 315 314 313 312 313 310 310 309 307 306 305 306 306 305 306 306 307 306 305 304 304 304 304
335 328 330 328 326 322 319 317 317 317 316 315 314 313 313 313 312 312 312 315 314 314 314 313 313 312 311 310 309 307 306 305 306 306 305 306 306 307 307 307 305 305 305 305
331 329 329 327 324 319 318 317 318 317 315 314 313 313 312 311 312 313 314 314 314 314 313 313 314 314 313 311 310 308 307 306 306 306 306 306 306 306 307 308 307 306 305 305
330 328 327 327 323 319 316 316 317 317 316 315 314 313 313 314 314 315 316 315 314 313 313 313 315 315 314 312 310 307 306 306 305 305 306 305 305 305 307 308 308 308 308 307
Wind_Speed
4 2 8 11 8 8 7 3 1 11 17 8 1 2 7 9 4 2 5 4 9 9 12 16 16 18 14 9 10 14 15 14 11 15 14 17 16 18 21 23 25 27 28 29
4 7 13 7 9 9 12 5 5 9 8 8 5 7 9 7 4 4 5 4 8 6 6 11 13 13 9 7 16 19 19 19 17 16 14 13 15 14 16 21 24 30 30 29
6 11 4 5 13 11 6 8 10 11 16 14 16 4 5 4 6 3 8 5 5 5 2 2 12 15 17 25 23 21 20 21 19 18 14 13 12 17 22 25 25 27 30 32
7 14 12 13 10 4 4 4 18 21 8 6 8 2 4 4 3 2 6 5 4 5 5 9 9 18 28 25 24 22 21 21 20 18 16 16 14 13 17 19 24 27 29 33
9 12 11 7 6 3 6 1 5 17 10 8 4 5 1 2 4 3 2 3 1 6 5 8 20 24 24 24 23 22 21 20 20 21 18 17 14 14 16 21 23 24 25 29
14 6 5 5 3 2 0 4 8 5 4 5 5 4 3 4 5 5 5 4 6 6 14 16 19 22 20 21 22 21 21 19 20 22 21 20 17 14 18 17 20 24 23 24
7 4 3 5 4 7 8 7 4 5 5 3 4 7 3 2 7 8 6 8 4 14 10 9 15 18 21 20 16 19 21 21 22 23 23 23 22 20 21 20 19 20 22 23
2 7 4 2 5 5 2 7 5 2 4 4 8 3 3 2 7 11 10 15 14 10 8 9 14 17 18 21 21 19 18 20 20 22 23 22 21 21 22 22 20 22 22 21
2 5 3 6 3 7 1 2 5 7 5 5 2 2 2 7 8 7 17 16 11 8 7 7 14 19 21 20 19 20 17 15 20 19 20 23 23 22 23 26 25 23 22 20
6 2 2 1 6 6 5 1 5 4 4 4 4 3 5 10 10 16 15 14 10 7 8 7 15 17 19 19 20 21 18 17 18 19 20 22 22 21 23 24 24 24 24 23
2 3 6 5 3 3 5 3 6 5 4 5 4 2 5 10 15 16 11 10 8 7 7 7 14 18 18 19 22 19 20 19 20 21 20 20 20 21 21 20 23 25 25 26
3 5 4 4 6 3 6 4 5 5 2 4 4 3 8 15 16 15 12 8 7 8 7 10 16 17 18 19 20 18 20 19 19 19 18 20 20 20 19 20 22 24 24 26
1 3 3 7 7 7 6 4 5 6 3 1 5 5 6 13 13 12 13 9 8 7 7 9 14 15 15 18 20 17 16 15 17 18 18 20 20 20 20 20 21 19 19 21
8 3 6 5 6 4 6 9 6 6 4 3 2 13 6 9 15 11 10 8 7 7 9 8 11 13 14 17 19 13 13 16 18 20 19 20 22 23 23 20 18 18 19 20
5 3 3 3 9 9 10 12 10 8 7 5 9 10 7 10 13 10 9 9 9 8 8 8 7 11 15 16 14 13 14 16 17 17 21 20 20 21 22 24 22 20 19 20
4 1 3 5 8 13 10 16 17 16 13 12 13 6 6 7 8 8 8 9 8 9 10 8 11 12 14 14 13 11 14 15 17 15 16 19 21 24 22 20 22 22 24 23
3 3 3 2 9 8 6 2 9 6 5 14 6 8 8 6 8 7 7 7 8 9 8 8 10 14 16 14 13 12 12 13 16 18 18 19 20 20 21 21 21 23 23 26
4 3 2 3 3 3 5 4 14 13 6 8 11 13 8 10 7 7 5 7 8 8 9 11 13 15 15 13 11 11 10 11 13 16 17 19 21 21 20 21 21 20 22 21
5 4 3 4 3 3 8 4 7 6 1 5 11 12 14 12 10 6 5 5 6 9 14 16 13 17 15 12 10 11 10 10 10 13 15 14 15 17 20 21 22 20 17 23
6 6 5 3 5 5 6 2 12 7 1 6 13 15 17 9 3 4 6 8 9 18 17 16 16 18 14 11 10 11 9 8 9 10 13 14 12 14 16 18 19 19 17 21
3 3 4 2 3 1 2 8 5 4 5 6 8 11 9 5 4 8 10 9 17 17 18 17 15 16 14 12 12 10 7 6 6 7 11 12 12 12 17 16 17 17 17 20
4 5 2 3 4 4 2 2 5 5 5 8 6 6 11 10 10 8 8 9 12 17 16 17 16 16 14 11 11 8 5 3 4 7 10 11 11 10 13 16 14 14 14 17
2 5 6 3 4 3 4 4 5 8 8 5 10 8 13 12 7 8 6 9 13 18 17 16 13 15 12 7 6 9 6 3 4 6 8 9 9 10 10 14 14 17 17 17
3 2 4 4 3 4 7 6 6 8 10 9 13 13 13 10 8 7 6 10 15 17 18 12 12 14 12 9 4 4 5 3 4 7 7 7 9 8 7 9 9 12 13 14
3 4 6 4 3 7 3 6 10 11 13 12 12 13 9 9 7 7 5 10 15 19 15 11 10 9 11 8 5 3 1 2 4 4 5 6 8 8 10 7 6 5 7 10
2 7 4 5 12 5 7 7 11 14 13 13 12 7 12 12 7 12 10 16 17 17 15 13 10 12 12 8 5 4 5 4 2 3 5 5 6 7 9 12 8 6 6 5
Wind_Direction
276 79 232 237 203 230 249 193 271 134 150 109 81 163 296 359 346 93 62 159 140 151 157 161 172 171 147 135 120 95 100 91 63 48 31 21 16 17 16 9 7 8 8 10
356 259 245 214 244 247 270 167 117 78 102 82 136 35 341 343 342 44 20 175 150 132 156 185 203 169 152 124 93 98 85 75 64 50 39 28 25 16 21 15 14 15 17 15
191 249 323 225 274 269 234 127 187 132 88 78 110 34 332 335 344 60 27 102 67 83 357 345 93 120 76 92 92 84 75 68 56 45 38 44 43 17 15 14 14 10 14 15
243 274 259 272 266 173 104 173 128 142 120 182 219 118 256 272 286 9 51 47 53 19 40 94 94 67 88 87 83 81 70 60 53 59 66 61 54 48 31 20 13 7 8 8
252 291 293 229 223 127 190 161 107 175 200 116 137 104 272 26 291 277 150 183 43 38 121 66 83 92 90 82 80 80 69 68 63 58 60 55 56 49 35 24 17 15 8 5
255 250 235 176 166 167 233 34 40 47 79 53 295 139 181 195 199 141 197 172 144 188 82 96 92 85 83 78 72 69 64 70 59 51 48 44 46 40 31 22 14 15 13 7
319 261 207 131 73 356 62 59 358 13 35 153 325 50 279 25 151 149 160 174 111 91 100 89 74 72 72 71 69 57 62 62 53 44 40 42 40 37 30 23 21 17 18 15
247 328 179 178 151 174 20 131 146 188 161 165 24 48 346 49 126 148 160 95 93 95 92 96 93 82 71 67 55 56 61 59 45 43 46 37 35 34 28 24 19 27 21 13
349 283 86 108 124 122 271 77 174 105 53 80 95 11 36 111 128 144 106 98 99 89 94 111 100 82 75 65 62 56 66 57 41 42 41 41 36 33 37 31 29 22 19 13
200 5 22 188 47 25 89 192 44 11 111 112 121 125 156 176 147 101 114 113 109 96 89 80 86 94 80 70 64 58 66 54 43 36 42 37 34 38 40 35 25 23 21 19
73 91 311 39 18 161 12 31 59 108 115 140 138 72 188 137 118 118 117 121 132 113 90 97 88 90 79 70 63 63 53 44 38 46 44 38 35 35 40 28 25 25 21 17
332 129 69 40 336 92 98 117 110 109 310 69 107 43 107 119 128 128 130 121 101 109 109 98 105 93 77 67 61 67 50 55 47 44 46 47 44 46 37 23 30 38 35 41
48 1 69 346 354 6 52 14 102 110 88 82 116 150 130 118 118 122 124 124 119 116 107 94 91 85 79 69 70 66 55 54 48 44 44 44 40 36 34 35 41 40 37 32
92 87 135 169 214 127 75 58 52 99 90 111 64 133 148 122 120 133 129 122 114 109 98 98 85 88 80 79 71 78 59 59 56 43 41 46 42 43 40 37 40 38 36 28
93 82 68 17 110 101 108 89 76 83 149 118 169 133 164 146 135 132 126 123 117 112 102 108 103 100 84 90 75 80 66 58 50 52 45 38 31 28 31 38 40 38 36 33
23 164 63 55 98 95 92 97 90 96 99 91 119 89 128 111 108 110 114 117 112 109 116 114 118 101 94 94 83 87 68 60 50 46 39 29 33 33 32 39 42 40 39 39
79 105 78 131 121 86 44 357 97 103 100 135 153 162 151 120 118 126 126 124 120 116 125 121 116 102 113 101 91 87 65 66 53 47 45 39 31 33 37 43 46 42 41 48
103 90 106 154 28 76 245 116 117 101 98 110 104 144 154 133 125 118 130 120 117 116 118 115 118 114 127 110 97 85 75 61 57 48 40 38 46 52 49 46 43 36 32 30
92 107 84 119 69 90 102 173 145 127 146 155 130 135 132 122 99 65 126 127 139 133 132 134 131 134 130 110 89 75 74 59 59 43 38 33 36 43 46 48 45 41 42 41
69 87 108 110 131 194 232 166 127 106 183 168 141 155 154 161 110 197 160 142 128 135 142 139 125 137 125 109 84 68 72 57 41 32 31 26 29 34 37 44 47 47 60 44
61 36 132 98 105 343 210 151 150 105 234 153 137 157 160 182 186 156 156 154 152 149 143 137 131 148 138 116 81 58 64 47 37 29 20 28 31 40 44 55 54 48 42 36
146 131 113 82 98 221 49 9 161 177 84 123 108 122 111 119 122 139 158 170 170 148 148 142 143 153 147 125 88 73 61 65 25 19 23 31 36 39 38 41 43 42 40 36
81 177 152 170 200 277 311 132 94 122 121 122 123 133 132 132 139 155 169 161 144 157 150 155 150 149 153 134 88 91 85 73 24 17 20 26 32 37 40 43 42 45 45 39
80 134 93 99 342 78 88 67 90 109 113 123 130 137 139 140 154 160 163 138 139 148 151 158 147 153 163 153 129 95 83 128 16 359 10 22 17 23 10 28 39 35 34 32
188 101 130 65 85 79 35 114 121 111 117 124 124 137 139 139 151 160 147 133 145 143 153 153 138 156 167 162 134 84 61 85 31 22 5 18 10 6 8 339 341 7 2 9
173 162 148 200 183 144 172 156 131 130 134 137 132 128 132 142 140 129 123 135 144 149 146 136 135 137 155 161 146 116 94 55 24 13 357 1 8 0 6 18 16 353 332 343